Location: Forshaga
(59.5328°N, 13.4805°E)
Time: 15:02:47
(UTC+01:00)

ISS - Pass Details

Date: 06 December 2021
Orbit: 413 x 422 km, 51.6° (Epoch: 18 January)

Event Time Altitude Azimuth Distance (km) Brightness Sun altitude
Rises 16:15:08 0° 260° (W) 2,387 1.5 -7.4°
Reaches altitude 10° 16:17:42 10° 240° (WSW) 1,519 0.9 -7.7°
Maximum altitude 16:20:05 18° 196° (SSW) 1,121 -0.9 -7.9°
Drops below altitude 10° 16:22:28 10° 151° (SSE) 1,512 -0.9 -8.2°
Enters shadow 16:27:33 -8° 123° (ESE) 3,349 0.6 -8.7°
